CW5920 Weather Reports


time (UTC)temp
F
wind
direction
speed
knots
gust
knots
rain 1hr
in
rain 24hr
in
rain mn
in
humidity
%
barometer
mb
20260507234516 67 135 1.7 3.5 0.00 0.00 0.00 69 1015.1
20260507233516 67 135 0.9 2.6 0.00 0.00 0.00 68 1014.9
20260507232517 67 0.0 2.6 0.00 0.00 0.00 69 1015.0
20260507231516 67 0.0 1.7 0.00 0.00 0.00 68 1014.9
20260507230516 67 135 1.7 4.3 0.00 0.00 0.00 68 1015.1
20260507225516 67 135 4.3 7.8 0.00 0.00 0.00 67 1015.3
20260507224517 68 135 3.5 7.0 0.00 0.00 0.00 67 1015.2
20260507223536 68 158 3.5 6.1 0.00 0.00 0.00 67 1015.3
20260507222516 68 158 3.5 6.1 0.00 0.15 0.00 66 1015.4
20260507221516 68 135 3.5 7.8 0.00 0.17 0.00 65 1015.6
20260507220516 68 158 3.5 7.0 0.00 0.17 0.00 64 1015.6
20260507215536 69 135 4.3 7.8 0.00 0.17 0.00 64 1015.6
20260507214517 69 113 4.3 7.0 0.00 0.17 0.00 62 1015.6
20260507213516 70 90 0.9 7.8 0.00 0.17 0.00 59 1015.8
20260507212516 70 0.0 0.0 0.00 0.17 0.00 56 1015.8
20260507211516 70 0.0 0.0 0.00 0.17 0.00 56 1016.0
20260507210516 70 0.0 0.0 0.00 0.17 0.00 55 1016.3
20260507205516 70 23 1.7 4.3 0.00 0.17 0.00 55 1016.5
20260507204517 70 113 2.6 6.1 0.00 0.17 0.00 56 1016.6
20260507203516 70 113 3.5 6.1 0.00 0.17 0.00 55 1016.5
20260507202536 70 68 1.7 6.1 0.00 0.17 0.00 56 1016.4
20260507201516 70 68 1.7 4.3 0.00 0.17 0.00 54 1016.3
20260507200517 70 23 2.6 4.3 0.00 0.17 0.00 53 1016.3
20260507195516 70 45 1.7 7.0 0.00 0.17 0.00 53 1016.6
20260507194516 70 23 3.5 7.8 0.00 0.17 0.00 52 1016.8
20260507193516 71 45 3.5 7.0 0.00 0.17 0.00 53 1016.9
20260507192516 71 68 0.9 4.3 0.00 0.17 0.00 53 1017.2
20260507191516 72 338 2.6 7.0 0.00 0.17 0.00 52 1017.4
20260507190516 72 315 1.7 4.3 0.00 0.17 0.00 52 1017.9
20260507185516 72 23 0.9 7.0 0.00 0.17 0.00 52 1018.1
20260507184516 71 0 1.7 6.1 0.00 0.17 0.00 56 1017.9
20260507183516 70 338 4.3 10.4 0.00 0.17 0.00 54 1017.8
20260507182516 70 338 4.3 9.6 0.00 0.17 0.00 54 1017.8
20260507181517 70 338 5.2 10.4 0.00 0.17 0.00 55 1017.7
20260507180517 70 338 5.2 10.4 0.00 0.17 0.00 55 1017.9
20260507175556 69 315 4.3 8.7 0.00 0.17 0.00 61 1017.9
20260507174536 68 338 3.5 7.8 0.00 0.17 0.00 61 1018.1
20260507173516 68 338 7.0 10.4 0.00 0.17 0.00 60 1018.2
20260507172536 67 0 3.5 8.7 0.00 0.17 0.00 65 1018.3
20260507171516 67 315 3.5 7.0 0.00 0.17 0.00 64 1018.6
20260507170516 66 315 4.3 10.4 0.00 0.17 0.00 65 1018.6
20260507165516 66 315 3.5 7.8 0.00 0.17 0.00 65 1019.1
20260507164516 65 0 4.3 12.2 0.00 0.17 0.00 66 1019.3
20260507163516 65 0 2.6 7.0 0.00 0.17 0.00 67 1019.6
20260507162516 65 338 1.7 5.2 0.00 0.17 0.00 68 1019.7
20260507161516 64 338 2.6 8.7 0.00 0.17 0.00 68 1019.6
20260507160516 64 338 2.6 8.7 0.00 0.17 0.00 70 1019.7
20260507155516 64 23 2.6 7.0 0.00 0.17 0.00 71 1019.5
20260507154516 63 338 2.6 5.2 0.00 0.17 0.00 73 1019.4
20260507153516 63 338 3.5 7.0 0.00 0.17 0.00 75 1019.5
20260507152516 62 315 3.5 7.0 0.00 0.17 0.00 75 1019.5
20260507151516 62 338 3.5 7.8 0.00 0.17 0.00 77 1019.8
20260507150516 62 0 2.6 7.8 0.00 0.17 0.00 79 1019.8
20260507145516 61 315 1.7 4.3 0.00 0.17 0.00 81 1019.9
20260507144516 60 293 1.7 6.1 0.00 0.19 0.00 85 1020.0
20260507143536 59 293 1.7 7.0 0.00 0.24 0.00 87 1020.1
20260507142516 58 293 1.7 6.1 0.00 0.24 0.00 90 1019.9
20260507141536 58 293 1.7 6.1 0.00 0.24 0.00 91 1020.1
20260507140516 57 293 1.7 6.1 0.00 0.24 0.00 92 1019.9
20260507135536 56 270 0.9 3.5 0.00 0.24 0.00 93 1020.2
20260507134516 56 0.0 3.5 0.00 0.24 0.00 93 1020.1
20260507133516 55 0.0 2.6 0.00 0.24 0.00 93 1020.1
20260507132516 54 0.0 1.7 0.00 0.24 0.00 93 1020.1
20260507131516 54 0.0 0.9 0.00 0.24 0.00 93 1020.1
20260507130536 53 0.0 0.0 0.00 0.24 0.00 92 1020.0
20260507125516 53 0.0 1.7 0.00 0.24 0.00 92 1020.0
20260507124536 53 0.0 0.0 0.00 0.24 0.00 92 1020.1
20260507123516 53 0.0 0.0 0.00 0.24 0.00 92 1020.1
20260507122516 53 0.0 0.0 0.00 0.24 0.00 92 1020.1
20260507121516 52 0.0 0.0 0.00 0.24 0.00 91 1019.9
20260507120516 52 0.0 0.0 0.00 0.24 0.00 91 1020.3
20260507115536 52 0.0 0.0 0.00 0.24 0.00 91 1020.2
20260507114516 53 0.0 0.0 0.00 0.24 0.00 91 1020.0
20260507113516 53 0.0 0.0 0.00 0.24 0.00 91 1019.9
20260507112516 53 0.0 0.9 0.00 0.24 0.00 90 1019.8
20260507111516 53 270 0.9 3.5 0.00 0.24 0.00 90 1019.6
20260507110516 53 270 0.9 3.5 0.00 0.24 0.00 90 1019.4
20260507105536 53 270 1.7 3.5 0.00 0.24 0.00 90 1019.4
20260507104516 54 270 1.7 3.5 0.00 0.24 0.00 90 1019.3
20260507103516 54 270 1.7 5.2 0.00 0.24 0.00 90 1019.1
20260507102516 54 270 2.6 5.2 0.00 0.24 0.00 90 1018.7
20260507101517 54 0.0 1.7 0.00 0.24 0.00 89 1018.7
20260507100516 54 293 0.9 3.5 0.00 0.24 0.00 89 1018.6
20260507095516 55 293 0.9 3.5 0.00 0.24 0.00 89 1018.2
20260507094516 55 0.0 0.0 0.00 0.24 0.00 89 1018.3
20260507093516 55 0.0 0.0 0.00 0.24 0.00 89 1018.3
20260507092536 55 0.0 0.0 0.00 0.24 0.00 88 1017.9
20260507091516 55 293 0.9 3.5 0.00 0.24 0.00 88 1017.7
20260507090516 55 0.0 2.6 0.00 0.24 0.00 88 1017.8
20260507085517 55 0.0 0.9 0.00 0.24 0.24 88 1017.7
20260507084517 56 0.0 2.6 0.00 0.24 0.24 88 1017.5
20260507083517 56 293 0.9 4.3 0.00 0.24 0.24 88 1017.4
20260507082537 56 293 1.7 4.3 0.00 0.24 0.24 87 1017.1
20260507081517 56 293 1.7 4.3 0.00 0.24 0.24 87 1017.2
20260507080537 56 293 1.7 4.3 0.00 0.24 0.24 87 1017.5
20260507075517 56 293 0.9 4.3 0.00 0.24 0.24 87 1017.4
20260507074517 57 293 0.9 3.5 0.00 0.24 0.24 86 1017.4
20260507073517 57 293 0.9 3.5 0.00 0.24 0.24 86 1017.1
20260507072517 57 0.0 0.0 0.00 0.24 0.24 86 1017.0
20260507071517 57 0.0 1.7 0.00 0.24 0.24 86 1016.9
20260507070517 57 0.0 0.0 0.00 0.24 0.24 86 1016.6
20260507065537 58 315 0.9 4.3 0.00 0.24 0.24 86 1016.5
20260507064517 58 0.0 1.7 0.00 0.24 0.24 86 1016.4
20260507063517 58 0.0 2.6 0.00 0.24 0.24 85 1016.5
20260507062517 58 23 0.9 4.3 0.00 0.24 0.24 85 1016.3
20260507061537 58 0.0 2.6 0.00 0.24 0.24 85 1016.3
20260507060517 58 45 0.9 4.3 0.00 0.24 0.24 85 1016.4
20260507055517 58 0.0 2.6 0.00 0.24 0.24 85 1016.3
20260507054517 58 0 0.9 3.5 0.00 0.24 0.24 85 1016.5
20260507053517 58 0 0.9 5.2 0.00 0.24 0.24 84 1016.4
20260507052517 58 338 0.9 5.2 0.00 0.24 0.24 84 1016.4
20260507051517 58 338 2.6 8.7 0.00 0.24 0.24 84 1016.4
20260507050517 58 0 0.9 5.2 0.00 0.24 0.24 84 1016.4
20260507045517 58 0 1.7 7.0 0.00 0.24 0.24 84 1016.2
20260507044517 59 0 1.7 5.2 0.00 0.24 0.24 85 1016.2
20260507043517 59 338 1.7 7.0 0.00 0.24 0.24 85 1016.4
20260507042517 59 338 2.6 7.0 0.00 0.24 0.24 86 1016.4
20260507041557 59 338 1.7 7.0 0.00 0.24 0.24 86 1016.5
20260507040517 59 0 0.9 7.0 0.00 0.24 0.24 86 1016.4
20260507035537 59 23 0.9 5.2 0.00 0.24 0.24 86 1016.6
20260507034517 59 0 0.9 3.5 0.00 0.24 0.24 87 1016.5
20260507033517 59 23 0.9 7.0 0.00 0.24 0.24 87 1016.6
20260507032517 59 338 1.7 5.2 0.00 0.24 0.24 88 1016.4
20260507031517 59 338 1.7 5.2 0.00 0.24 0.24 89 1016.5
20260507030537 59 338 2.6 7.0 0.00 0.24 0.24 89 1016.2
20260507025517 59 315 2.6 6.1 0.00 0.24 0.24 90 1016.2
20260507024517 59 338 2.6 4.3 0.00 0.24 0.24 90 1016.2
20260507023517 59 0.0 3.5 0.00 0.24 0.24 90 1016.0
20260507022517 59 315 2.6 4.3 0.00 0.24 0.24 91 1015.7
20260507021517 59 338 1.7 5.2 0.00 0.24 0.24 91 1015.4
20260507020517 59 338 2.6 7.0 0.00 0.24 0.24 91 1015.2
20260507015537 59 0.0 0.0 0.00 0.24 0.24 91 1015.0
20260507014517 59 0.0 0.0 0.00 0.24 0.24 90 1014.7
20260507013637 59 0.0 0.0 0.00 0.24 0.24 90 1014.5
20260507012517 59 0.0 0.0 0.00 0.24 0.24 90 1014.3
20260507011517 60 0.0 1.7 0.00 0.24 0.24 90 1014.1
20260507010557 60 0.0 0.0 0.00 0.24 0.24 90 1014.0
20260507005517 60 0.0 0.0 0.00 0.24 0.24 90 1013.9
20260507004517 60 0.0 0.0 0.00 0.24 0.24 90 1013.9
20260507003517 60 0.0 0.0 0.00 0.24 0.24 90 1013.8
20260507002517 60 68 0.9 3.5 0.00 0.24 0.24 90 1013.9
20260507001517 60 23 0.9 3.5 0.00 0.24 0.24 90 1013.7
20260507000517 60 0.0 1.7 0.00 0.24 0.24 90 1013.7
20260506235517 60 0 0.9 2.6 0.00 0.24 0.24 90 1013.4